North Platte, NE

2:15 PM CST on January 21, 2017 (GMT -0600)
North Platte Regional Airport Lee Bird Field

Weather History for KLBF - June, 2014

Change the Weather History Date:

Sunday, June 29, 2014

  Actual Average Record
Temperature  
Mean Temperature 75 °F 72 °F  
Max Temperature 90 °F 86 °F 104 °F (1911)
Min Temperature 60 °F 58 °F 46 °F (1908)
Degree Days  
Heating Degree Days 0 0  
Month to date heating degree days 39 52  
Since 1 June heating degree days 39 52  
Since 1 July heating degree days 6869 6687  
Cooling Degree Days 10 8  
Month to date cooling degree days 127 130  
Year to date cooling degree days 176 158  
Since 1 June cooling degree days 127 130  
Growing Degree Days 25 (Base 50)    
Moisture  
Dew Point 60 °F    
Average Humidity 57    
Maximum Humidity 87    
Minimum Humidity 27    
Precipitation  
Precipitation 0.00 in 0.10 in 2.52 in (1988)
Month to date precipitation 8.73 3.33  
Year to date precipitation 13.02 10.77  
Snow  
Snow 0.00 in 0.00 in 0.00 in ()
Month to date snowfall T 0.0  
Since 1 June snowfall T 0.0  
Since 1 July snowfall 29.8 28.5  
Snow Depth 0.00 in    
Sea Level Pressure  
Sea Level Pressure 29.78 in    
Wind  
Wind Speed 6 mph (SSW)    
Max Wind Speed 15 mph    
Max Gust Speed 19 mph    
Visibility 10 miles    
Events      
T = Trace of Precipitation, MM = Missing Value Source: NWS Daily Summary

Daily Weather History Graph

Daily Weather History Graph

Search for Another Location

Airport or City:

Trip Planner

Search our weather history database for the weather conditions in past years. The results will help you decide how hot, cold, wet, or windy it might be!

Date:

Astronomy

Jun. 29, 2014 Rise Set
Actual Time 6:12 AM CDT 9:19 PM CDT
Civil Twilight 5:39 AM CDT 9:52 PM CDT
Nautical Twilight 4:56 AM CDT 10:35 PM CDT
Astronomical Twilight 4:05 AM CDT 11:26 PM CDT
Moon 8:34 AM CDT (6/29) 10:39 PM CDT (6/29)
Length of Visible Light 16h 13m
Length of Day
15h 06m
Waxing Crescent, 5% of the Moon is Illuminated
Jun 29
Waxing Crescent
Jul 5
First Quarter
Jul 12
Full
Jul 18
Last Quarter
Jul 26
New

Hourly Weather History & Observations

Time (CDT) Temp. Heat Index Dew Point Humidity Pressure Visibility Wind Dir Wind Speed Gust Speed Precip Events Conditions
12:53 AM 68.0 °F - 54.0 °F 61% 29.76 in 10.0 mi South 9.2 mph - N/A   Clear
1:53 AM 66.9 °F - 55.0 °F 66% 29.77 in 10.0 mi WSW 4.6 mph - N/A   Clear
2:53 AM 64.9 °F - 57.0 °F 75% 29.77 in 10.0 mi Calm Calm - N/A   Clear
3:53 AM 64.0 °F - 57.9 °F 80% 29.80 in 7.0 mi NW 9.2 mph - N/A   Clear
4:53 AM 62.1 °F - 57.0 °F 84% 29.81 in 10.0 mi South 3.5 mph - N/A   Clear
5:40 AM 64.0 °F - 60.1 °F 87% 29.88 in 10.0 mi SE 3.5 mph - N/A   Overcast
5:53 AM 64.9 °F - 60.1 °F 84% 29.79 in 10.0 mi ESE 4.6 mph - N/A   Overcast
6:53 AM 66.0 °F - 61.0 °F 84% 29.78 in 10.0 mi Calm Calm - N/A   Overcast
7:18 AM 66.9 °F - 62.1 °F 84% 29.86 in 10.0 mi Calm Calm - N/A   Partly Cloudy
7:53 AM 70.0 °F - 63.0 °F 78% 29.80 in 10.0 mi NW 5.8 mph - N/A   Partly Cloudy
8:53 AM 73.0 °F - 59.0 °F 61% 29.83 in 10.0 mi NE 5.8 mph - N/A   Partly Cloudy
9:28 AM 73.9 °F - 60.1 °F 62% 29.91 in 10.0 mi Calm Calm - N/A   Mostly Cloudy
9:45 AM 73.9 °F - 60.1 °F 62% 29.91 in 10.0 mi East 3.5 mph - N/A   Scattered Clouds
9:53 AM 73.9 °F - 61.0 °F 64% 29.84 in 10.0 mi SSE 5.8 mph - N/A   Mostly Cloudy
10:06 AM 73.0 °F - 62.1 °F 68% 29.91 in 10.0 mi SSW 4.6 mph - N/A   Mostly Cloudy
10:20 AM 73.9 °F - 63.0 °F 68% 29.91 in 10.0 mi Calm Calm - N/A   Mostly Cloudy
10:53 AM 77.0 °F - 64.9 °F 66% 29.83 in 10.0 mi Variable 6.9 mph - N/A   Clear
11:53 AM 81.0 °F 83.3 °F 66.9 °F 62% 29.81 in 10.0 mi WSW 10.4 mph - N/A   Partly Cloudy
12:53 PM 82.9 °F 85.0 °F 66.0 °F 56% 29.78 in 10.0 mi WSW 11.5 mph - N/A   Clear
1:53 PM 84.9 °F 84.4 °F 59.0 °F 41% 29.77 in 10.0 mi West 11.5 mph - N/A   Clear
2:53 PM 86.0 °F 85.0 °F 57.9 °F 38% 29.76 in 10.0 mi West 9.2 mph - N/A   Clear
3:53 PM 87.1 °F 85.9 °F 57.0 °F 36% 29.75 in 10.0 mi West 8.1 mph - N/A   Clear
4:53 PM 89.1 °F 87.1 °F 55.0 °F 31% 29.74 in 10.0 mi WNW 8.1 mph - N/A   Clear
5:53 PM 90.0 °F 87.5 °F 53.1 °F 28% 29.72 in 10.0 mi NW 3.5 mph - N/A   Clear
6:53 PM 89.1 °F - 52.0 °F 28% 29.71 in 10.0 mi ESE 3.5 mph - N/A   Clear
7:53 PM 84.9 °F 85.9 °F 63.0 °F 48% 29.70 in 10.0 mi SSE 4.6 mph - N/A   Clear
8:53 PM 77.0 °F - 66.0 °F 69% 29.70 in 10.0 mi ESE 5.8 mph - N/A   Clear
9:53 PM 77.0 °F - 64.9 °F 66% 29.70 in 10.0 mi SSE 6.9 mph - N/A   Clear
10:53 PM 78.1 °F - 69.1 °F 74% 29.71 in 10.0 mi SSE 8.1 mph - N/A   Clear
11:53 PM 75.9 °F - 69.1 °F 79% 29.70 in 10.0 mi SSE 8.1 mph - N/A   Clear